Location: Newark
(36.1358°N, 115.1208°W)
Time: 16:23:07
(UTC+00:00)

A-11 Canister half - Visible Passes

Search period start: 19 February 2020 00:00
Search period end: 29 February 2020 00:00
Orbit: 1517 x 1683 km, 47.2° (Epoch: 18 February)

Date Brightness Start Highest point End Pass type
(mag) Time Alt. Az. Time Alt. Az. Time Alt. Az.
19 Feb 9.7 03:17:20 10° WNW 03:26:33 43° N 03:30:49 29° NE visible
19 Feb 10.0 05:23:36 10° NW 05:29:01 36° NW 05:29:01 36° NW visible
20 Feb 9.7 02:54:16 10° WNW 03:03:31 43° N 03:09:12 23° NE visible
20 Feb 9.7 05:00:38 10° WNW 05:07:24 45° NNW 05:07:24 45° NNW visible
21 Feb 9.7 02:31:12 10° WNW 02:40:30 43° N 02:47:35 17° ENE visible
21 Feb 9.4 04:37:39 10° WNW 04:45:47 52° N 04:45:47 52° N visible
21 Feb 11.1 06:42:57 10° WNW 06:43:59 14° WNW 06:43:59 14° WNW visible
22 Feb 9.7 02:08:06 10° WNW 02:17:27 44° N 02:25:59 12° ENE visible
22 Feb 9.2 04:14:40 10° WNW 04:24:09 54° NNE 04:24:11 54° NNE visible
22 Feb 10.8 06:20:00 10° WNW 06:22:23 20° WNW 06:22:23 20° WNW visible
23 Feb 9.8 01:45:02 10° WNW 01:54:25 44° N 02:03:31 10° ENE visible
23 Feb 9.2 03:51:41 10° WNW 04:01:10 52° NNE 04:02:36 49° NE visible
23 Feb 10.4 05:57:02 10° WNW 06:00:48 27° WNW 06:00:48 27° WNW visible
24 Feb 9.3 03:28:41 10° WNW 03:38:10 51° NNE 03:41:02 40° ENE visible
24 Feb 10.0 05:34:04 10° WNW 05:39:14 37° WNW 05:39:14 37° WNW visible
25 Feb 9.4 03:05:41 10° WNW 03:15:10 50° NNE 03:19:29 32° ENE visible
25 Feb 9.6 05:11:07 10° WNW 05:17:42 49° WNW 05:17:42 49° WNW visible
26 Feb 9.5 02:42:40 10° WNW 02:52:09 49° NNE 02:57:59 24° ENE visible
26 Feb 9.1 04:48:09 10° WNW 04:56:12 66° WNW 04:56:12 66° WNW visible
27 Feb 9.5 02:19:40 10° WNW 02:29:08 48° NNE 02:36:31 17° E visible
27 Feb 8.8 04:25:11 10° WNW 04:34:44 86° W 04:34:44 86° W visible
27 Feb 11.0 06:31:26 10° WNW 06:32:56 14° W 06:32:56 14° W visible
28 Feb 9.6 01:56:39 10° WNW 02:06:07 47° NNE 02:15:05 11° E visible
28 Feb 8.8 04:02:14 10° WNW 04:12:02 88° NE 04:13:18 72° ESE visible
28 Feb 10.7 06:08:19 10° WNW 06:11:31 20° W 06:11:31 20° W visible
